Location: G�migny
(47.9646°N, 1.6950°E)
Time: 07:41:11
(UTC+00:00)

Cosmos 2058 - Pass Details

Date: 23 October 2019
Orbit: 562 x 584 km, 82.5° (Epoch: 19 November)

Event Time Altitude Azimuth Distance (km) Brightness Sun altitude
Rises 19:10:24 0° 343° (NNW) 2,821 6.8 -24.0°
Reaches altitude 10° 19:12:43 10° 335° (NNW) 1,915 6.0 -24.4°
Maximum altitude 19:16:36 37° 268° (W) 918 4.4 -25.0°
Drops below altitude 10° 19:20:28 10° 201° (SSW) 1,892 5.6 -25.7°
Sets 19:22:45 0° 193° (SSW) 2,783 6.4 -26.0°
